TimeCST,TemperatureF,Dew PointF,Humidity,Sea Level PressureIn,VisibilityMPH,Wind Direction,Wind SpeedMPH,Gust SpeedMPH,PrecipitationIn,Events,Conditions,WindDirDegrees,DateUTC
12:16 AM,33.8,30.2,87,30.28,10.0,NW,9.2,-,N/A,,Overcast,320,2011-01-11 06:16:00
12:53 AM,34.0,30.9,89,30.30,10.0,NNW,9.2,-,N/A,,Overcast,330,2011-01-11 06:53:00
1:53 AM,34.0,30.0,85,30.31,10.0,NNW,10.4,-,N/A,,Overcast,340,2011-01-11 07:53:00
2:53 AM,33.1,30.0,89,30.32,10.0,NNW,5.8,-,N/A,,Overcast,330,2011-01-11 08:53:00
3:53 AM,34.0,28.9,82,30.35,10.0,NNW,12.7,-,N/A,,Overcast,330,2011-01-11 09:53:00
4:48 AM,35.6,28.4,75,30.36,10.0,NW,10.4,21.9,N/A,,Overcast,320,2011-01-11 10:48:00
4:53 AM,35.1,28.9,78,30.38,10.0,NNW,12.7,-,N/A,,Overcast,330,2011-01-11 10:53:00
5:53 AM,34.0,28.9,82,30.42,10.0,NNW,11.5,-,N/A,,Overcast,330,2011-01-11 11:53:00
6:17 AM,33.8,28.4,81,30.41,10.0,NNW,9.2,18.4,N/A,,Overcast,330,2011-01-11 12:17:00
6:53 AM,34.0,28.0,79,30.44,10.0,NNW,11.5,-,N/A,,Overcast,330,2011-01-11 12:53:00
7:53 AM,34.0,27.0,75,30.47,10.0,NNW,16.1,21.9,N/A,,Overcast,330,2011-01-11 13:53:00
8:53 AM,35.6,26.6,70,30.49,10.0,NNW,11.5,-,N/A,,Overcast,340,2011-01-11 14:53:00
9:53 AM,36.0,27.0,70,30.53,10.0,NW,13.8,23.0,N/A,,Overcast,320,2011-01-11 15:53:00
10:53 AM,39.0,26.1,60,30.52,10.0,NW,13.8,23.0,N/A,,Scattered Clouds,320,2011-01-11 16:53:00
11:53 AM,42.1,25.0,51,30.50,10.0,NW,13.8,-,N/A,,Clear,310,2011-01-11 17:53:00
12:53 PM,44.1,23.0,43,30.47,10.0,NW,19.6,24.2,N/A,,Clear,320,2011-01-11 18:53:00
1:53 PM,45.0,25.0,46,30.47,10.0,NNW,11.5,20.7,N/A,,Clear,330,2011-01-11 19:53:00
3:53 PM,45.0,18.0,34,30.50,10.0,NNW,16.1,23.0,N/A,,Clear,330,2011-01-11 21:53:00
4:53 PM,41.0,19.0,41,30.51,10.0,NW,13.8,21.9,N/A,,Clear,320,2011-01-11 22:53:00
5:53 PM,37.0,19.9,50,30.54,10.0,NW,9.2,-,N/A,,Clear,320,2011-01-11 23:53:00
6:53 PM,34.0,21.0,59,30.57,10.0,NW,8.1,-,N/A,,Clear,320,2011-01-12 00:53:00
7:53 PM,33.1,19.9,59,30.59,10.0,NNW,10.4,-,N/A,,Clear,330,2011-01-12 01:53:00
8:53 PM,30.9,19.9,64,30.60,10.0,NNW,9.2,-,N/A,,Clear,330,2011-01-12 02:53:00
9:53 PM,28.0,19.9,72,30.61,10.0,NW,8.1,-,N/A,,Clear,320,2011-01-12 03:53:00
10:53 PM,28.0,21.0,75,30.62,10.0,NW,5.8,-,N/A,,Clear,310,2011-01-12 04:53:00
11:53 PM,28.0,19.9,72,30.62,10.0,WNW,6.9,-,N/A,,Clear,300,2011-01-12 05:53:00